Погода в Шиели

Погода в Шиели : погода сейчас, прогноз погоды и архив. Всё, что Вы хотите узнать о погоде в Шиели!

Хотите узнать прогноз погоды в Шиели? Тогда Вам сюда: Погода в Шиели

Поиск расширенной информации на нашем сайте:

Другие новости

Новости СМИ2

Главная страница сайта

Новости сайта

03.07.2017

Напоминаем, что на нашем специализированном сайте Метеоцентр.Азия вы можете получить высокодетализированные автоматические прогнозы погоды по пунктам России, СНГ и мира в авиационном формате (включающие направление и скорость ветра, видимость, явления погоды, количество и форму облачности, нижнюю и верхнюю границу облачности).


Погода в Шиели - сегодня

Время (UTC), дата Ветер
(°,м/с) 
Видим.   Явления Облачность Т
(°С)
Тd
(°С)
f(%) Тe
(°С)
Pmin
(гПа)
dP
(гПа)
Po
(мм)
O2
(г/м3)
Тmin Tmax R s Состояние
почвы
03 22.11.17 тихо ()   20000 м    ясно 
-3.5 -12.5 50 -4  1020.3  -0.1  751  308           
06 22.11.17 070 (В) 20000 м    ясно 
+10.1 -3.8 37 +11  1019.1  -0.3  750  292  -3.8         
09 22.11.17 110 (В) 20000 м    ясно 
+16.7 -5 22 +18  1016.8  -1.9  749  285           
12 22.11.17 040 (СВ) 20000 м    ясно 
+14.5 -3.3 29 +16  1015.8  -1.1  748  287           
15 22.11.17 070 (В) н/о    ясно 
+6.5 -6.6 39 +7  1015.3  -0.9  747  295    +18       
18 22.11.17 090 (В) н/о    ясно 
+6.7 -6.3 39 +8  1014.6  -0.7  747  294    +18       
21 22.11.17 090 (В) н/о    ясно 
+4.8 -7.3 41 +4  1014.3  -0.5  747  296           
00 23.11.17 тихо ()   н/о    ясно 
-1.2 -9.2 54 -1  1014.3  -0.4  746  303           
03 23.11.17 тихо ()   20000 м    3/0 верхняя 
[Cc]
-2.9 -9.1 62 -3  1014.4  746  305           
06 23.11.17 160 (Ю) 20000 м    6/0 верхняя 
[Cc]
+9.4 -3.3 41 +10  1014.9  1.3  747  291  -3.2         
09 23.11.17 060 (СВ) 20000 м    4/0 верхняя 
[Ci]
+14.8 -3.6 28 +16  1013.3  -1.2  746  286           
12 23.11.17 070 (В) 20000 м    8/0 верхняя 
[Cc]
+12.6 -2.5 35 +14  1013  -0.4  746  288           
15 23.11.17 080 (В) н/о    ясно 
+7 -5.7 40 +7  1013.5  0.1  746  294    +15.4       
18 23.11.17 090 (В) н/о    ясно 
+4.4 -6.2 46 +4  1013.8  0.1  746  297    +15.4       
21 23.11.17 100 (В) н/о    ясно 
+2.7 -6.7 50 +3  1013.7  -0.2  746  298           
00 24.11.17 090 (В) н/о    ясно 
+3.3 -6.2 50 +2  1013.1  -0.6  746  297           
03 24.11.17 110 (В) 20000 м    6/0 верхняя 
[Ci]
+3 -6.2 51 +2  1014  0.9  746  298           
06 24.11.17 090 (В) 20000 м    8/0 верхняя 
[Cs]
+9.9 -6.7 30 +10  1014.2  0.7  747  291  +2.7         
09 24.11.17 120 (ЮВ) 20000 м    8/0 верхняя 
[Cs]
+16.8 -4.4 23 +18  1012.7  -1.1  746  284           
12 24.11.17 180 (Ю) 10 км    9/0 средняя 
[Ac und]
+13.6 -3.6 30 +15  1013.8  747  287           
15 24.11.17 220 (ЮЗ) н/о    10/0 средняя 
[As trans]
+10.6 -2.5 40 +11  1015.5  1.4  748  290    +17.4       
18 24.11.17 220 (ЮЗ) н/о    9/0 средняя 
[Ac und]
+8 -2.2 48 +9  1016.7  749  293    +17.4       
21 24.11.17 190 (Ю) н/о    4/0 верхняя 
[Cc]
+5.4 -2.7 56 +6  1017.5  0.5  749  296           
00 25.11.17 220 (ЮЗ) н/о    ясно 
+4.2 -1.9 64 +5  1017.2  -0.3  749  297           
03 25.11.17 тихо ()   10 км    9/0 средняя 
[Ac As]
+1 -4.3 68 +1  1017.3  -0.1  749  301           
Время (UTC), дата Ветер
(°,м/с) 
Видим.   Явления Облачность Т
(°С)
Тd
(°С)
f(%) Тe
(°С)
Pmin
(гПа)
dP
(гПа)
Po
(мм)
O2
(г/м3)
Тmin Tmax R s Состояние
почвы

Для получения пояснительной информации подведите курсор к названию столбца.

ПОГОДА в Шиели - архив

Всё, что Вы хотите узнать о погоде в Шиели - удобно и подробно!

Выберите нужную дату (начиная с 1 января 2015* года) и нажмите кнопку "Найти".
Будут отображены архивные сводки погоды по пункту Шиели, начиная с указанной даты.


Отображать данные в формате CSV (для использования в таблицах Excel)


Внимание! Наш архив погоды предназначен исключительно для личного некоммерческого использования в познавательных целях. Если Вам необходимы официальные справки о состоянии погоды (для производственных, юридических, коммерческих и т.п. целей), обращайтесь в органы Росгидромета.

*Примечание: данная дата относится к архиву по метеостанциям СССР (Россия, СНГ, Балтия).
Архив по метеостанциям Зарубежной Европы и Азии (кроме Китая) хранится 10 дней, по другим регионам земного шара (Китай, Африка, Америка, Австралия, Океания) - 1 день.

Шиели - район местоположения метеостанции


Название, широта, долгота, высота метеостанции:
Шиели (Чиили) 44.2°ш. 66.8°д. 153 м над ур. моря [Казахстан]

Дополнительная информация

В oтличие oт бoльшинства пoгoдных сайтoв мы публикуем пoдрoбную метеoинфoрмацию в детальнoм прoфессиoнальнoм фoрмате.

Характеристики температуры и влажнoсти вoздуха измеряются на высoте 2 м в тени вдали oт зданий и деревьев.
Скoрoсть ветра измеряется на высoте 10 м (на урoвне рoста челoвека скoрoсть ветра ниже в 1.5-2 раза). Если метеoстанция нахoдится в гoрoде или в лесу, тo скoрoсть ветра занижена на 2-4 м/с пo сравнению с oткрытым местoм. Скoрoсть ветра над акватoриями крупных рек и oзёр, а также на вершинах хoлмoв на 2-5 м/с выше, чем в oбычных услoвиях.
Атмoсфернoе давление в разных тoчках местнoсти мoжет значительнo oтличаться oт давления на метеoстанции, в зависимoсти oт услoвий рельефа (при пoдъёме на 10 м давление пoнижается примернo на 1 мм рт.ст.).